Time,TemperatureF,DewpointF,PressureIn,WindDirection,WindDirectionDegrees,WindSpeedMPH,WindSpeedGustMPH,Humidity,HourlyPrecipIn,Conditions,Clouds,dailyrainin,SolarRadiationWatts/m^2,SoftwareType,DateUTC
2013-07-10 00:01:00,72.0,48.0,-100.00,ESE,111,8.0,17.0,42,0.00,,,0.02,0.000000,,2013-07-10 06:01:00,
2013-07-10 00:11:00,72.0,48.0,-100.00,ESE,111,8.0,17.0,42,0.00,,,0.02,0.000000,,2013-07-10 06:11:00,
2013-07-10 00:21:00,72.0,48.0,-100.00,ESE,111,8.0,17.0,42,0.00,,,0.02,0.000000,,2013-07-10 06:21:00,
2013-07-10 00:32:00,72.0,48.0,-100.00,ESE,111,8.0,17.0,42,0.00,,,0.02,0.000000,,2013-07-10 06:32:00,
2013-07-10 00:52:00,69.0,47.0,-100.00,ENE,60,5.0,12.0,46,0.00,,,0.02,0.000000,,2013-07-10 06:52:00,
2013-07-10 01:01:00,69.0,47.0,-100.00,ENE,60,5.0,12.0,46,0.00,,,0.02,0.000000,,2013-07-10 07:01:00,
2013-07-10 01:11:00,69.0,47.0,-100.00,ENE,60,5.0,12.0,46,0.00,,,0.02,0.000000,,2013-07-10 07:11:00,
2013-07-10 01:22:00,69.0,47.0,-100.00,ENE,60,5.0,12.0,46,0.00,,,0.02,0.000000,,2013-07-10 07:22:00,
2013-07-10 01:33:00,69.0,47.0,-100.00,ENE,60,5.0,12.0,46,0.00,,,0.02,0.000000,,2013-07-10 07:33:00,
2013-07-10 02:01:00,69.0,46.0,-100.00,ENE,69,5.0,11.0,44,0.00,,,0.02,0.000000,,2013-07-10 08:01:00,
2013-07-10 02:11:00,69.0,46.0,-100.00,ENE,69,5.0,11.0,44,0.00,,,0.02,0.000000,,2013-07-10 08:11:00,
2013-07-10 02:23:00,69.0,46.0,-100.00,ENE,69,5.0,11.0,44,0.00,,,0.02,0.000000,,2013-07-10 08:23:00,
2013-07-10 02:33:00,69.0,46.0,-100.00,ENE,69,5.0,11.0,44,0.00,,,0.02,0.000000,,2013-07-10 08:33:00,
2013-07-10 02:53:00,67.0,46.0,-100.00,NW,304,5.0,10.0,46,0.00,,,0.02,0.000000,,2013-07-10 08:53:00,
2013-07-10 03:02:00,67.0,46.0,-100.00,NW,304,5.0,10.0,46,0.00,,,0.02,0.000000,,2013-07-10 09:02:00,
2013-07-10 03:12:00,67.0,46.0,-100.00,NW,304,5.0,10.0,46,0.00,,,0.02,0.000000,,2013-07-10 09:12:00,
2013-07-10 03:22:00,67.0,46.0,-100.00,NW,304,5.0,10.0,46,0.00,,,0.02,0.000000,,2013-07-10 09:22:00,
2013-07-10 03:32:00,67.0,46.0,-100.00,NW,304,5.0,10.0,46,0.00,,,0.02,0.000000,,2013-07-10 09:32:00,
2013-07-10 03:53:00,64.0,47.0,-100.00,NE,47,5.0,7.0,54,0.00,,,0.02,0.000000,,2013-07-10 09:53:00,
2013-07-10 04:01:00,64.0,47.0,-100.00,NE,47,5.0,7.0,54,0.00,,,0.02,0.000000,,2013-07-10 10:01:00,
2013-07-10 04:13:00,64.0,47.0,-100.00,NE,47,5.0,7.0,54,0.00,,,0.02,0.000000,,2013-07-10 10:13:00,
2013-07-10 04:23:00,64.0,47.0,-100.00,NE,47,5.0,7.0,54,0.00,,,0.02,0.000000,,2013-07-10 10:23:00,
2013-07-10 04:32:00,64.0,47.0,-100.00,NE,47,5.0,7.0,54,0.00,,,0.02,0.000000,,2013-07-10 10:32:00,
2013-07-10 05:00:00,-999.0,-99.9,-100.00,NE,50,1.0,4.0,-999,-99.99,,,-99.99,0.000000,,2013-07-10 11:00:00,
2013-07-10 05:11:00,64.0,48.0,-100.00,NE,50,1.0,4.0,56,0.00,,,0.02,0.000000,,2013-07-10 11:11:00,
2013-07-10 05:22:00,64.0,48.0,-100.00,NE,50,1.0,4.0,56,0.00,,,0.02,0.000000,,2013-07-10 11:22:00,
2013-07-10 05:33:00,64.0,48.0,-100.00,NE,50,1.0,4.0,56,0.00,,,0.02,0.000000,,2013-07-10 11:33:00,
2013-07-10 07:52:00,65.0,52.0,-100.00,NNE,26,3.0,4.0,63,-99.99,,,0.02,86.000000,,2013-07-10 13:52:00,
2013-07-10 08:01:00,65.0,52.0,-100.00,NNE,26,3.0,4.0,63,-99.99,,,0.02,86.000000,,2013-07-10 14:01:00,
2013-07-10 08:11:00,65.0,52.0,-100.00,NNE,26,3.0,4.0,63,-99.99,,,0.02,86.000000,,2013-07-10 14:11:00,
2013-07-10 08:22:00,65.0,52.0,-100.00,NNE,26,3.0,4.0,63,-99.99,,,0.02,86.000000,,2013-07-10 14:22:00,
2013-07-10 08:33:00,65.0,52.0,-100.00,NNE,26,3.0,4.0,63,-99.99,,,0.02,86.000000,,2013-07-10 14:33:00,
2013-07-10 08:34:00,68.0,51.0,-100.00,South,188,3.0,5.0,54,0.00,,,0.02,208.000000,,2013-07-10 14:34:00,
2013-07-10 08:53:00,68.0,51.0,-100.00,South,188,3.0,5.0,54,0.00,,,0.02,208.000000,,2013-07-10 14:53:00,
2013-07-10 09:01:00,68.0,51.0,-100.00,South,188,3.0,5.0,54,0.00,,,0.02,208.000000,,2013-07-10 15:01:00,
2013-07-10 09:11:00,68.0,51.0,-100.00,South,188,3.0,5.0,54,0.00,,,0.02,208.000000,,2013-07-10 15:11:00,
2013-07-10 09:22:00,68.0,51.0,-100.00,South,188,3.0,5.0,54,0.00,,,0.02,208.000000,,2013-07-10 15:22:00,
2013-07-10 09:52:00,76.0,52.0,-100.00,NW,313,4.0,6.0,44,0.00,,,0.02,319.000000,,2013-07-10 15:52:00,
2013-07-10 10:01:00,76.0,52.0,-100.00,NW,313,4.0,6.0,44,0.00,,,0.02,319.000000,,2013-07-10 16:01:00,
2013-07-10 10:11:00,76.0,52.0,-100.00,NW,313,4.0,6.0,44,0.00,,,0.02,319.000000,,2013-07-10 16:11:00,
2013-07-10 10:22:00,76.0,52.0,-100.00,NW,313,4.0,6.0,44,0.00,,,0.02,319.000000,,2013-07-10 16:22:00,
2013-07-10 10:33:00,76.0,52.0,-100.00,NW,313,4.0,6.0,44,0.00,,,0.02,319.000000,,2013-07-10 16:33:00,
2013-07-10 10:53:00,81.0,52.0,-100.00,NNW,341,4.0,7.0,36,0.00,,,0.02,658.000000,,2013-07-10 16:53:00,
2013-07-10 11:02:00,81.0,52.0,-100.00,NNW,341,4.0,7.0,36,0.00,,,0.02,658.000000,,2013-07-10 17:02:00,
2013-07-10 11:11:00,81.0,52.0,-100.00,NNW,341,4.0,7.0,36,0.00,,,0.02,658.000000,,2013-07-10 17:11:00,
2013-07-10 11:23:00,81.0,52.0,-100.00,NNW,341,4.0,7.0,36,0.00,,,0.02,658.000000,,2013-07-10 17:23:00,
2013-07-10 11:32:00,81.0,52.0,-100.00,NNW,341,4.0,7.0,36,0.00,,,0.02,658.000000,,2013-07-10 17:32:00,
2013-07-10 11:53:00,86.0,49.0,-100.00,NW,313,6.0,9.0,28,0.00,,,0.02,845.000000,,2013-07-10 17:53:00,
2013-07-10 12:02:00,86.0,49.0,-100.00,NW,313,6.0,9.0,28,0.00,,,0.02,845.000000,,2013-07-10 18:02:00,
2013-07-10 12:11:00,86.0,49.0,-100.00,NW,313,6.0,9.0,28,0.00,,,0.02,845.000000,,2013-07-10 18:11:00,
2013-07-10 12:21:00,86.0,49.0,-100.00,NW,313,6.0,9.0,28,0.00,,,0.02,845.000000,,2013-07-10 18:21:00,
2013-07-10 12:32:00,86.0,49.0,-100.00,NW,313,6.0,9.0,28,0.00,,,0.02,845.000000,,2013-07-10 18:32:00,
2013-07-10 13:01:00,82.0,45.0,-100.00,SSW,209,9.0,15.0,27,0.00,,,0.02,450.000000,,2013-07-10 19:01:00,
2013-07-10 13:11:00,82.0,45.0,-100.00,SSW,209,9.0,15.0,27,0.00,,,0.02,450.000000,,2013-07-10 19:11:00,
2013-07-10 13:21:00,82.0,45.0,-100.00,SSW,209,9.0,15.0,27,0.00,,,0.02,450.000000,,2013-07-10 19:21:00,
2013-07-10 14:01:00,80.0,46.0,-100.00,South,173,12.0,22.0,30,-99.99,,,0.02,250.000000,,2013-07-10 20:01:00,
2013-07-10 14:11:00,80.0,46.0,-100.00,South,173,12.0,22.0,30,-99.99,,,0.02,250.000000,,2013-07-10 20:11:00,
2013-07-10 14:22:00,80.0,46.0,-100.00,South,173,12.0,22.0,30,-99.99,,,0.02,250.000000,,2013-07-10 20:22:00,
2013-07-10 14:32:00,80.0,46.0,-100.00,South,173,12.0,22.0,30,-99.99,,,0.02,250.000000,,2013-07-10 20:32:00,
2013-07-10 14:52:00,79.0,48.0,-100.00,ENE,60,15.0,24.0,34,0.00,,,0.02,582.000000,,2013-07-10 20:52:00,
2013-07-10 15:01:00,79.0,48.0,-100.00,ENE,60,15.0,24.0,34,0.00,,,0.02,582.000000,,2013-07-10 21:01:00,
2013-07-10 15:11:00,79.0,48.0,-100.00,ENE,60,15.0,24.0,34,0.00,,,0.02,582.000000,,2013-07-10 21:11:00,
2013-07-10 15:22:00,79.0,48.0,-100.00,ENE,60,15.0,24.0,34,0.00,,,0.02,582.000000,,2013-07-10 21:22:00,
2013-07-10 15:32:00,79.0,48.0,-100.00,ENE,60,15.0,24.0,34,0.00,,,0.02,582.000000,,2013-07-10 21:32:00,
2013-07-10 15:52:00,77.0,50.0,-100.00,ENE,62,17.0,23.0,39,0.00,,,0.02,406.000000,,2013-07-10 21:52:00,
2013-07-10 16:01:00,77.0,50.0,-100.00,ENE,62,17.0,23.0,39,0.00,,,0.02,406.000000,,2013-07-10 22:01:00,
2013-07-10 16:11:00,77.0,50.0,-100.00,ENE,62,17.0,23.0,39,0.00,,,0.02,406.000000,,2013-07-10 22:11:00,
2013-07-10 16:21:00,77.0,50.0,-100.00,ENE,62,17.0,23.0,39,0.00,,,0.02,406.000000,,2013-07-10 22:21:00,
2013-07-10 16:33:00,77.0,50.0,-100.00,ENE,62,17.0,23.0,39,0.00,,,0.02,406.000000,,2013-07-10 22:33:00,
2013-07-10 16:34:00,75.0,51.0,-100.00,NE,44,10.0,21.0,43,0.00,,,0.02,73.000000,,2013-07-10 22:34:00,
2013-07-10 16:53:00,75.0,51.0,-100.00,NE,44,10.0,21.0,43,0.00,,,0.02,73.000000,,2013-07-10 22:53:00,
2013-07-10 17:01:00,75.0,51.0,-100.00,NE,44,10.0,21.0,43,0.00,,,0.02,73.000000,,2013-07-10 23:01:00,
2013-07-10 17:11:00,75.0,51.0,-100.00,NE,44,10.0,21.0,43,0.00,,,0.02,73.000000,,2013-07-10 23:11:00,
2013-07-10 17:22:00,75.0,51.0,-100.00,NE,44,10.0,21.0,43,0.00,,,0.02,73.000000,,2013-07-10 23:22:00,
2013-07-10 17:32:00,75.0,51.0,-100.00,NE,44,10.0,21.0,43,0.00,,,0.02,73.000000,,2013-07-10 23:32:00,
2013-07-10 17:52:00,71.0,52.0,-100.00,East,94,5.0,26.0,52,0.00,,,0.00,36.000000,,2013-07-10 23:52:00,
2013-07-10 18:01:00,71.0,52.0,-100.00,East,94,5.0,26.0,52,0.00,,,0.00,36.000000,,2013-07-11 00:01:00,
2013-07-10 18:11:00,71.0,52.0,-100.00,East,94,5.0,26.0,52,0.00,,,0.00,36.000000,,2013-07-11 00:11:00,
2013-07-10 18:22:00,71.0,52.0,-100.00,East,94,5.0,26.0,52,0.00,,,0.00,36.000000,,2013-07-11 00:22:00,
2013-07-10 18:32:00,71.0,52.0,-100.00,East,94,5.0,26.0,52,0.00,,,0.00,36.000000,,2013-07-11 00:32:00,
2013-07-10 19:01:00,72.0,52.0,-100.00,SSW,192,4.0,15.0,49,0.00,,,0.00,64.000000,,2013-07-11 01:01:00,
2013-07-10 19:11:00,72.0,52.0,-100.00,SSW,192,4.0,15.0,49,0.00,,,0.00,64.000000,,2013-07-11 01:11:00,
2013-07-10 19:22:00,72.0,52.0,-100.00,SSW,192,4.0,15.0,49,0.00,,,0.00,64.000000,,2013-07-11 01:22:00,
2013-07-10 19:32:00,72.0,52.0,-100.00,SSW,192,4.0,15.0,49,0.00,,,0.00,64.000000,,2013-07-11 01:32:00,
2013-07-10 20:02:00,66.0,56.0,-100.00,ENE,63,11.0,24.0,70,0.01,,,0.01,33.000000,,2013-07-11 02:02:00,
2013-07-10 20:11:00,66.0,56.0,-100.00,ENE,63,11.0,24.0,70,0.01,,,0.01,33.000000,,2013-07-11 02:11:00,
2013-07-10 20:22:00,66.0,56.0,-100.00,ENE,63,11.0,24.0,70,0.01,,,0.01,33.000000,,2013-07-11 02:22:00,
2013-07-10 20:32:00,66.0,56.0,-100.00,ENE,63,11.0,24.0,70,0.01,,,0.01,33.000000,,2013-07-11 02:32:00,
2013-07-10 20:53:00,65.0,55.0,-100.00,SSE,157,7.0,9.0,70,0.00,,,0.01,10.000000,,2013-07-11 02:53:00,
2013-07-10 21:01:00,65.0,55.0,-100.00,SSE,157,7.0,9.0,70,0.00,,,0.01,10.000000,,2013-07-11 03:01:00,
2013-07-10 21:11:00,65.0,55.0,-100.00,SSE,157,7.0,9.0,70,0.00,,,0.01,10.000000,,2013-07-11 03:11:00,
2013-07-10 21:21:00,65.0,55.0,-100.00,SSE,157,7.0,9.0,70,0.00,,,0.01,10.000000,,2013-07-11 03:21:00,
2013-07-10 21:33:00,65.0,55.0,-100.00,SSE,157,7.0,9.0,70,0.00,,,0.01,10.000000,,2013-07-11 03:33:00,
2013-07-10 21:52:00,65.0,49.0,-100.00,ENE,65,5.0,10.0,57,0.00,,,0.01,0.000000,,2013-07-11 03:52:00,
2013-07-10 22:01:00,65.0,49.0,-100.00,ENE,65,5.0,10.0,57,0.00,,,0.01,0.000000,,2013-07-11 04:01:00,
2013-07-10 22:12:00,65.0,49.0,-100.00,ENE,65,5.0,10.0,57,0.00,,,0.01,0.000000,,2013-07-11 04:12:00,
2013-07-10 22:22:00,65.0,49.0,-100.00,ENE,65,5.0,10.0,57,0.00,,,0.01,0.000000,,2013-07-11 04:22:00,
2013-07-10 22:32:00,65.0,49.0,-100.00,ENE,65,5.0,10.0,57,0.00,,,0.01,0.000000,,2013-07-11 04:32:00,
2013-07-10 22:53:00,61.0,51.0,-100.00,West,272,3.0,7.0,69,0.00,,,0.01,0.000000,,2013-07-11 04:53:00,
2013-07-10 23:01:00,61.0,51.0,-100.00,West,272,3.0,7.0,69,0.00,,,0.01,0.000000,,2013-07-11 05:01:00,
2013-07-10 23:12:00,61.0,51.0,-100.00,West,272,3.0,7.0,69,0.00,,,0.01,0.000000,,2013-07-11 05:12:00,
2013-07-10 23:22:00,61.0,51.0,-100.00,West,272,3.0,7.0,69,0.00,,,0.01,0.000000,,2013-07-11 05:22:00,
2013-07-10 23:32:00,61.0,51.0,-100.00,West,272,3.0,7.0,69,0.00,,,0.01,0.000000,,2013-07-11 05:32:00,
2013-07-10 23:52:00,60.0,48.0,-100.00,ENE,64,4.0,9.0,65,0.00,,,0.01,0.000000,,2013-07-11 05:52:00,